Dublin, VA

3:08 PM EST on January 19, 2018 (GMT -0500)
New River Valley

Weather History for KPSK - January, 2014

Change the Weather History Date:

Tuesday, January 28, 2014

  Actual Average (KBCB) Record (KBCB)
Temperature  
Mean Temperature 12 °F -  
Max Temperature 15 °F 41 °F 69 °F (1999)
Min Temperature 8 °F 19 °F -8 °F (1986)
Degree Days  
Heating Degree Days 54    
Moisture  
Dew Point 1 °F    
Average Humidity 63    
Maximum Humidity 85    
Minimum Humidity 41    
Precipitation  
Precipitation 0.00 in - - ()
Sea Level Pressure  
Sea Level Pressure 30.18 in    
Wind  
Wind Speed 6 mph (NNW)    
Max Wind Speed 15 mph    
Max Gust Speed 20 mph    
Visibility 8 miles    
Events Snow    
Averages and records for this station are not official NWS values.
T = Trace of Precipitation, MM = Missing Value Source: NWS Daily Summary

Daily Weather History Graph

Daily Weather History Graph

Search for Another Location

Airport or City:

Trip Planner

Search our weather history database for the weather conditions in past years. The results will help you decide how hot, cold, wet, or windy it might be!

Date:

Astronomy

Jan. 28, 2014 Rise Set
Actual Time 7:28 AM EST 5:43 PM EST
Civil Twilight 7:00 AM EST 6:10 PM EST
Nautical Twilight 6:29 AM EST 6:42 PM EST
Astronomical Twilight 5:58 AM EST 7:12 PM EST
Moon 5:07 AM EST (1/28) 3:32 PM EST (1/28)
Length of Visible Light 11h 09m
Length of Day
10h 14m
Waning Crescent, 7% of the Moon is Illuminated
Jan 28
Waning Crescent
Jan 30
New
Feb 6
First Quarter
Feb 14
Full
Feb 22
Last Quarter

Hourly Weather History & Observations

Time (EST) Temp. Windchill Dew Point Humidity Pressure Visibility Wind Dir Wind Speed Gust Speed Precip Events Conditions
12:15 AM 15.8 °F 5.1 °F -4.0 °F 41% 30.14 in 10.0 mi NW 8.1 mph 17.3 mph N/A   Clear
12:35 AM 15.8 °F 3.4 °F -4.0 °F 41% 30.15 in 10.0 mi NW 10.4 mph - N/A   Clear
12:55 AM 14.0 °F -1.4 °F -2.2 °F 49% 30.14 in 10.0 mi WNW 15.0 mph - N/A   Clear
1:15 AM 14.0 °F 1.2 °F -4.0 °F 45% 30.14 in 10.0 mi NW 10.4 mph 19.6 mph N/A   Clear
1:35 AM 12.2 °F 0.7 °F -2.2 °F 53% 30.15 in 10.0 mi North 8.1 mph - N/A   Clear
1:55 AM 12.2 °F -2.5 °F -2.2 °F 53% 30.15 in 10.0 mi NW 12.7 mph 17.3 mph N/A   Clear
2:15 AM 12.2 °F -1.8 °F -4.0 °F 48% 30.16 in 10.0 mi NW 11.5 mph - N/A   Clear
2:35 AM 12.2 °F -2.5 °F -4.0 °F 48% 30.16 in 10.0 mi NNW 12.7 mph 17.3 mph N/A   Clear
2:55 AM 10.4 °F -3.3 °F -5.8 °F 48% 30.15 in 10.0 mi NW 10.4 mph - N/A   Scattered Clouds
3:15 AM 10.4 °F -4.1 °F -5.8 °F 48% 30.16 in 10.0 mi NW 11.5 mph 17.3 mph N/A   Mostly Cloudy
3:35 AM 10.4 °F -2.4 °F -5.8 °F 48% 30.16 in 10.0 mi NNW 9.2 mph 16.1 mph N/A   Overcast
3:55 AM 10.4 °F -3.3 °F -5.8 °F 48% 30.18 in 10.0 mi NNW 10.4 mph 16.1 mph N/A   Overcast
4:15 AM 10.4 °F -4.1 °F -5.8 °F 48% 30.17 in 10.0 mi NNW 11.5 mph 16.1 mph N/A   Overcast
4:35 AM 10.4 °F -0.4 °F -5.8 °F 48% 30.18 in 10.0 mi NNW 6.9 mph - N/A   Overcast
4:55 AM 10.4 °F -1.5 °F -5.8 °F 48% 30.19 in 10.0 mi NW 8.1 mph - N/A   Overcast
5:15 AM 8.6 °F -2.6 °F -5.8 °F 52% 30.20 in 10.0 mi North 6.9 mph - N/A   Overcast
5:35 AM 8.6 °F -1.3 °F -5.8 °F 52% 30.20 in 10.0 mi NNW 5.8 mph - N/A   Overcast
5:55 AM 8.6 °F -3.7 °F -5.8 °F 52% 30.21 in 10.0 mi North 8.1 mph - N/A   Overcast
6:15 AM 8.6 °F -2.6 °F -5.8 °F 52% 30.21 in 10.0 mi North 6.9 mph - N/A   Overcast
6:35 AM 8.6 °F -1.3 °F -5.8 °F 52% 30.22 in 10.0 mi NNW 5.8 mph - N/A   Overcast
6:55 AM 8.6 °F -2.6 °F -5.8 °F 52% 30.22 in 10.0 mi North 6.9 mph - N/A   Overcast
7:15 AM 8.6 °F -2.6 °F -5.8 °F 52% 30.22 in 10.0 mi North 6.9 mph - N/A   Overcast
7:35 AM 8.6 °F -1.3 °F -5.8 °F 52% 30.22 in 10.0 mi North 5.8 mph - N/A   Overcast
7:55 AM 8.6 °F -1.3 °F -5.8 °F 52% 30.22 in 10.0 mi North 5.8 mph - N/A   Overcast
8:15 AM 8.6 °F -1.3 °F -5.8 °F 52% 30.23 in 10.0 mi NNW 5.8 mph - N/A   Overcast
8:35 AM 8.6 °F -1.3 °F -4.0 °F 57% 30.23 in 10.0 mi NNW 5.8 mph - N/A   Overcast
8:55 AM 8.6 °F 0.1 °F -5.8 °F 52% 30.23 in 10.0 mi North 4.6 mph - N/A   Overcast
9:15 AM 8.6 °F 0.1 °F -4.0 °F 57% 30.24 in 10.0 mi NNE 4.6 mph - N/A   Overcast
9:35 AM 8.6 °F 0.1 °F -4.0 °F 57% 30.25 in 10.0 mi North 4.6 mph - N/A   Overcast
9:55 AM 8.6 °F 0.1 °F -5.8 °F 52% 30.26 in 10.0 mi NNE 4.6 mph - N/A   Overcast
10:15 AM 8.6 °F -1.3 °F -4.0 °F 57% 30.26 in 10.0 mi North 5.8 mph - N/A   Overcast
10:35 AM 8.6 °F -2.6 °F -2.2 °F 62% 30.25 in 7.0 mi North 6.9 mph - N/A   Mostly Cloudy
10:55 AM 10.4 °F -0.4 °F -2.2 °F 57% 30.25 in 10.0 mi NNE 6.9 mph - N/A   Scattered Clouds
11:15 AM 10.4 °F 4.0 °F -4.0 °F 52% 30.24 in 10.0 mi North 3.5 mph - N/A   Clear
11:35 AM 12.2 °F 1.7 °F -5.8 °F 45% 30.24 in 10.0 mi NE 6.9 mph - N/A   Clear
11:55 AM 12.2 °F 6.1 °F -5.8 °F 45% 30.24 in 10.0 mi North 3.5 mph - N/A Snow Light Snow
12:15 PM 12.2 °F 4.3 °F -2.2 °F 53% 30.23 in 7.0 mi NW 4.6 mph - N/A Snow Light Snow
12:35 PM 10.4 °F 2.2 °F -0.4 °F 62% 30.22 in 2.0 mi North 4.6 mph - N/A Snow Light Snow
12:55 PM 10.4 °F - 1.4 °F 67% 30.20 in 4.0 mi Calm Calm - N/A Snow Light Snow
1:15 PM 12.2 °F - 1.4 °F 62% 30.19 in 4.0 mi Calm Calm - N/A Snow Light Snow
1:35 PM 12.2 °F - 3.2 °F 67% 30.19 in 4.0 mi Calm Calm - N/A Snow Light Snow
1:55 PM 12.2 °F - 3.2 °F 67% 30.18 in 10.0 mi Calm Calm - N/A Snow Light Snow
2:15 PM 14.0 °F - 3.2 °F 62% 30.18 in 5.0 mi Calm Calm - N/A Snow Light Snow
2:35 PM 14.0 °F - 3.2 °F 62% 30.17 in 7.0 mi Calm Calm - N/A Snow Light Snow
2:55 PM 14.0 °F - 3.2 °F 62% 30.16 in 10.0 mi Calm Calm - N/A   Overcast
3:15 PM 15.8 °F - 5.0 °F 62% 30.15 in 10.0 mi Calm Calm - N/A   Overcast
3:35 PM 14.0 °F - 3.2 °F 62% 30.15 in 7.0 mi Calm Calm - N/A Snow Light Snow
3:55 PM 14.0 °F - 6.8 °F 73% 30.15 in 5.0 mi Calm Calm - N/A Snow Light Snow
4:15 PM 14.0 °F - 6.8 °F 73% 30.15 in 7.0 mi Calm Calm - N/A Snow Light Snow
4:35 PM 14.0 °F - 6.8 °F 73% 30.16 in 1.8 mi Calm Calm - N/A Snow Light Snow
4:55 PM 14.0 °F - 6.8 °F 73% 30.15 in 1.5 mi Calm Calm - N/A Snow Light Snow
5:15 PM 14.0 °F - 8.6 °F 79% 30.15 in 1.5 mi Calm Calm - N/A Snow Light Snow
5:35 PM 14.0 °F - 8.6 °F 79% 30.15 in 2.5 mi Calm Calm - N/A Snow Light Snow
5:55 PM 14.0 °F - 8.6 °F 79% 30.15 in 5.0 mi Calm Calm - N/A Snow Light Snow
6:15 PM 14.0 °F - 8.6 °F 79% 30.15 in 10.0 mi Calm Calm - N/A   Overcast
6:35 PM 14.0 °F - 8.6 °F 79% 30.15 in 10.0 mi Calm Calm - N/A Snow Light Snow
6:55 PM 14.0 °F - 8.6 °F 79% 30.15 in 10.0 mi Calm Calm - N/A Snow Light Snow
7:15 PM 14.0 °F - 8.6 °F 79% 30.15 in 5.0 mi Calm Calm - N/A Snow Light Snow
7:35 PM 14.0 °F - 8.6 °F 79% 30.14 in 2.5 mi Calm Calm - N/A Snow Light Snow
7:55 PM 12.2 °F - 8.6 °F 85% 30.14 in 2.0 mi Calm Calm - N/A Snow Light Snow
8:15 PM 12.2 °F 6.1 °F 8.6 °F 85% 30.13 in 2.0 mi NNE 3.5 mph - N/A Snow Light Snow
8:35 PM 12.2 °F - 8.6 °F 85% 30.13 in 3.0 mi Calm Calm - N/A Snow Light Snow
8:55 PM 12.2 °F - 8.6 °F 85% 30.13 in 4.0 mi Calm Calm - N/A Snow Light Snow
9:15 PM 12.2 °F - 8.6 °F 85% 30.13 in 4.0 mi Calm Calm - N/A Snow Light Snow
9:35 PM 12.2 °F - 8.6 °F 85% 30.13 in 7.0 mi Calm Calm - N/A Snow Light Snow
9:55 PM 12.2 °F - 8.6 °F 85% 30.12 in 4.0 mi Calm Calm - N/A Snow Light Snow
10:15 PM 12.2 °F - 8.6 °F 85% 30.12 in 10.0 mi Calm Calm - N/A Snow Light Snow
10:35 PM 12.2 °F - 8.6 °F 85% 30.12 in 10.0 mi Calm Calm - N/A   Overcast
10:55 PM 12.2 °F - 8.6 °F 85% 30.11 in 10.0 mi Calm Calm - N/A   Overcast
11:15 PM 12.2 °F 6.1 °F 8.6 °F 85% 30.12 in 10.0 mi NNW 3.5 mph - N/A   Overcast
11:35 PM 12.2 °F 1.7 °F 8.6 °F 85% 30.12 in 10.0 mi NNW 6.9 mph - N/A   Overcast
11:55 PM 12.2 °F 4.3 °F 6.8 °F 79% 30.12 in 10.0 mi NW 4.6 mph - N/A   Overcast